SL-16 DEB, 22337

Orbit data source: Space-Track

SL-16 DEB, 22337 is space debris in LEO originally from a launch on Fri, 25 Dec 1992 UTC launched from the Tyuratam Missile And Space Complex (TTMTR). Debris objects in space refer to the collection of defunct objects orbiting the Earth. Examples of debris include non-operational satellites, rocket bodies, and fragments generated from explosions, collisions, or faulty payload assembly.

Loading next visibility...
Identifier
22337, 1992-093AA
Orbit
LEO
Last TLE update
5 hours ago
Origin
Manufacturer
Unknown
Mission
Spacecraft
Bus & Motor
Unknown
Mass
Unknown
Launch date (UTC)
1992-12-25 (33 years ago)
Launch vehicle
Unknown
Launch site
Tyuratam Missile And Space Complex (TTMTR)
Object type
Payload
Rocket body
Debris
Shape & HBR
Unknown
Radar Cross Section
Medium (>0.1 m² and <1 m²)

Expand to show TLE details & history

TLE from 5 hours ago
0 SL-16 DEB
1 22337U 92093AA  25186.61910825 -.00000010  00000-0  25894-4 0  9998
2 22337  71.2904 280.4231 0146693  49.4898 311.8883 13.84515291641678
Epoch: 2025-07-05T14:51Z
TLE epoch observation values (Epoch: 2025-07-05T14:51:30.952Z)
Latitude
-0.00001°
Longitude
133.68958°
Altitude
879.421 km
Speed
7.449 km/s
True Right ascension
18h 41m 41s
True Declination
0° 00' 00"
Sunlit
Object was in full shadow at epoch
Visualization orbit readout
Latitude
-66.91445°
Longitude
81.06488°
Altitude
1,033.605 km
Speed
7.304 km/s
Apparent Right ascension
18h 02m 10s
Apparent Declination
-58° 38' 40"
Sunlit
Object is in full shadow
Visualization observer readout
Local Sidereal Time
07:37:24
Azimuth
148.994° SSE
Elevation
-65.936°
Doppler factor
1
Orbital elements
Apogee altitude
1,053.279 km
Perigee altitude
838.404 km
Semi-major axis
7,323.978 km
Eccentricity
0.01467
Inclination
71.2904°
RAAN
280.4231°
Arg. of periapsis
49.4898°
True anomaly
Unknown
Mean anomaly
311.8883°
Eccentric anomaly
Unknown
Mean motion
3.46276 °/min
Orbital period
103.96 mins
BSTAR
0.000025894
Loading maneuver chart data...
Loading SW <> Apogee altitude chart data...
Loading historical data...
Loading historical data...
Loading historical data...
Loading historical data...
Loading historical data...
Loading historical data...
Loading historical data...

SL-16 DEB Visibility forecast

Observer location: undefined°, undefined°

Span
Click to sort rows by Start time (UTC) header in descending order
Start Az.
Max El. time (UTC)
Max El. Az.
Max El.
End time (UTC)
End Az.
8 mins2025-07-06 06:34:40.081Z152.499° SSE2025-07-06 06:38:40.081Z104.06° ESE22.714°2025-07-06 06:42:40.081Z52.644° ENE
9 mins2025-07-06 08:20:40.081Z233.332° WSW2025-07-06 08:24:40.081Z294.356° NW33.771°2025-07-06 08:29:40.081Z7.843° NNE
5 mins2025-07-06 15:41:40.081Z24.9° NE2025-07-06 15:43:40.081Z47.31° ENE15.749°2025-07-06 15:46:40.081Z79.925° E
10 mins2025-07-06 17:26:40.081Z335.965° NNW2025-07-06 17:30:40.081Z311.52° NW44.653°2025-07-06 17:36:40.081Z161.097° S
|